Location: Sungai Bunut
(2.6333°N, 113.7333°E)
Time: 11:04:05
(UTC+00:00)

ARIANE 5 DEB (SYLDA) - Pass Details

Date: 16 October 2021
Orbit: 647 x 35578 km, 5.4° (Epoch: 28 November)

Event Time Altitude Azimuth Distance (km) Brightness Sun altitude
Rises 12:15:17 0° 264° (W) 8,120 9.4 -31.2°
Reaches altitude 10° 12:23:01 10° 263° (W) 4,742 7.9 -33.1°
Enters shadow 12:30:42 53° 257° (WSW) 1,154 4.0 -35.0°
